weather.gov     
National Weather Service

Regional Weather Roundup
NWS Homepage
This page is being discontinued on March 12, 2014.
The same data is available at this site. Please update your bookmarks.
Thank you, and we apologize for the inconvenience.
Please send an email to SR-SRH.Webmaster@noaa.gov with any concerns.


Current Version
Previous Version:    01  02  03  04  05  06  07  08  09  10  11  12  13  14  15  16  17  18  19  20  21  22  23  24  25  26  
[Printable]
139
ASUS42 KTBW 270310
RWRFL
FLORIDA REGIONAL WEATHER ROUNDUP
NATIONAL WEATHER SERVICE TAMPA BAY RUSKIN FL
1000 PM EST MON JAN 26 2015

NOTE: "FAIR" INDICATES FEW OR NO CLOUDS BELOW 12,000 FEET WITH NO
SIGNIFICANT WEATHER AND/OR OBSTRUCTIONS TO VISIBILITY.


FLZ001>010-012>015-112-114-115-270400-
PANHANDLE FLORIDA

CITY           SKY/WX    TMP DP  RH WIND       PRES   REMARKS
PENSACOLA      CLEAR     47  35  63 W6        30.04F WCI  44
PENSACOLA NAS  CLEAR     44  36  73 W3        30.04F
MILTON NAS     CLEAR     41  34  76 W7        30.04R WCI  36
CRESTVIEW      CLEAR     41  34  76 CALM      30.03F
DUKE FIELD     CLEAR     38  33  83 CALM      30.02F
VALPARAISO     CLEAR     43  35  73 W5        30.03F WCI  40
MARY ESTHER    CLEAR     47  31  53 W7        30.04S WCI  44
TRI COUNTY     FAIR      40  36  86 CALM      30.01F
PANAMA CITY    FAIR      44  35  70 CALM      30.02S
TYNDALL AFB    CLEAR     48  36  63 NW6       30.02F
APALACHICOLA   CLEAR     48  37  65 NW5       30.03S

STATION/POSITION SKY/WX   TEMP    WIND        PRES    WAVE   SWELL
                          AIR SEA DIR/SP/G            HT/PER HT/PER
                          (F)     (DEG/KT/KT) (MB)    (FT/S) (FT/S)
30.1N   87.6W              57 62  290/ 10/ 12 1017.4R   3/ 8   3/ 8
29.2N   88.2W              59 70  310/ 14/ 17 1018.7F   4/ 8   3/ 8
28.7N   86.0W              60 70  340/ 17/ 21 1017.3R   7/ 7   3/ 8
PANAMA CITY BEAC           49 60  330/  5/  6 1016.4F
CAPE SAN BLAS    NOT AVBL
TOWER C                    53     330/ 18/ 20 1016.5R
28.5N   84.5W              60 68  320/ 21/ 25 1016.0R   8/ 9   3/ 9

$$
FLZ011-016>038-118-127-128-134-139-239-270400-
NORTH FLORIDA

CITY           SKY/WX    TMP DP  RH WIND       PRES   REMARKS
MARIANNA       CLEAR     41  36  82 W3        30.00F
TALLAHASSEE    CLEAR     44  33  65 W3        30.00F
PERRY          CLEAR     46  37  73 NW7       29.99F WCI  42
CROSS CITY       N/A     45  37  73 W3        29.99R
LAKE CITY      FAIR      45  36  70 NW12      29.95F WCI  39
GAINESVILLE    CLEAR     47  36  65 NW10      29.96R WCI  42
MAYPORT NAS    PTCLDY    49  37  63 W10G18    29.91R WCI  45
JACKSONVILLE   PTCLDY    47  36  65 NW16G24   29.91S WCI  40
JAX NAS        PTCLDY    51  36  56 W10       29.93R
JAX CRAIG      CLEAR     49  35  58 NW14G28   29.91S WCI  44
JAX CECIL      CLEAR     46  36  66 W13G18    29.93S WCI  41
FERNANDINA BEA MOCLDY    54  36  50 W17G24    29.89S
ST AUGUSTINE   CLEAR     49  38  65 NW13G18   29.93R WCI  44

STATION/POSITION SKY/WX   TEMP    WIND        PRES    WAVE   SWELL
                          AIR SEA DIR/SP/G            HT/PER HT/PER
                          (F)     (DEG/KT/KT) (MB)    (FT/S) (FT/S)
SHELL POINT      NOT AVBL
KEATON BEACH               50     320/ 10/ 16 1015.9R
CEDAR KEY                  52     350/  6/ 11 1015.9R
FERNANDINA                 50 57  290/ 15/ 18 1011.9S
30.7N   81.3W                 58                N/A     3/ 4
MAYPORT                    50 58  300/ 15/ 19   N/A
31.4N   80.9W              50 55  290/ 23/ 29 1010.4R   4/ 5
ST AUGUSTINE               49     310/ 14/ 17 1013.3R

$$
FLZ040-043>046-052-053-057-058-063-144-270400-
INTERIOR CENTRAL FLORIDA

CITY           SKY/WX    TMP DP  RH WIND       PRES   REMARKS
OCALA          CLEAR     48  37  66 NW14G20   29.97R WCI  43
THE VILLAGES     N/A     52  41  66 W10       29.87R
LEESBURG       CLEAR     53  43  68 NW13      29.96R
SANFORD        CLEAR     52  42  69 W12       29.94R
ORLANDO EXEC   CLEAR     53  44  71 W12       29.95R
ORLANDO INTL   CLEAR     53  46  77 W13       29.95R
KISSIMMEE      CLEAR     52  48  87 W9        29.95R
WINTER HAVEN   CLEAR     54  46  74 W9        29.97R
LAKELAND       PTCLDY    50  45  81 W8        29.98R
BARTOW         FAIR      54  46  76 W8        29.97R
OKEECHOBEE     CLEAR     50  46  87 W5        29.95S

$$
FLZ041-047-054-059-064-141-147-270400-
EAST CENTRAL FLORIDA

CITY           SKY/WX    TMP DP  RH WIND       PRES   REMARKS
DAYTONA BEACH  CLEAR     51  41  68 W10       29.92R
DELAND         CLEAR    N/A N/A N/A W8        29.94R
NEW SMYRNA BEA CLEAR     48  41  76 W9        29.93  WCI  44
JFK SPACE CTR  CLEAR     53  44  73 W9        29.91R
CAPE CANAVERAL CLEAR     54  45  72 W15G21    29.92R
PATRICK AFB    CLEAR     55  46  73 W17       29.93R
MELBOURNE      CLEAR     52  45  77 W10       29.93R
VERO BEACH     CLEAR     51  46  83 W9        29.94R
FT PIERCE      CLEAR     51  47  86 W7        29.93S
STUART         CLEAR     54  46  76 W6        29.94S

STATION/POSITION SKY/WX   TEMP    WIND        PRES    WAVE   SWELL
                          AIR SEA DIR/SP/G            HT/PER HT/PER
                          (F)     (DEG/KT/KT) (MB)    (FT/S) (FT/S)
28.5N   80.2W              59 70  280/ 21/ 27 1011.7S
28.9N   78.5W              65 76  300/ 23/ 29 1009.2F  12/ 8
TRIDENT PIER               54 64  260/ 11/ 16 1012.6R
28.4N   80.5W                 64                N/A     2/ 3
27.6N   80.2W                 73                N/A     3/ 5

$$
FLZ050-056-061-142-242-148-248-149-249-151-251-155-255-
160-260-270400-
WEST CENTRAL FLORIDA

CITY           SKY/WX    TMP DP  RH WIND       PRES   REMARKS
CRYSTAL RIVER  FAIR      54  41  62 NW9       29.98R
INVERNESS      FAIR      45  43  93 CALM      29.98R
BROOKSVILLE    PTCLDY    55  44  66 NW13      29.98R
ZEPHYRHILLS    FAIR      50  45  81 W6        29.99R
CLEARWATER     PTCLDY    57  46  66 NW18      29.99R
TAMPA INTL     PTCLDY    56  45  66 NW16G22   29.99R
TAMPA EXEC     PTCLDY    57  45  62 NW7       29.99R
PLANT CITY       N/A    N/A N/A N/A MISG        N/A
MACDILL AFB    CLEAR     57  49  75 NW16G24   29.98R
PETER O KNIGHT PTCLDY    59  48  67 NW7G17    29.99R
ST PETERSBURG  PTCLDY    59  48  67 NW13G23   29.96R
SARASOTA       PTCLDY    59  46  62 NW16G24   29.97R
VENICE         MOCLDY    63  48  59 NW20G29   29.99R

STATION/POSITION SKY/WX   TEMP    WIND        PRES    WAVE   SWELL
                          AIR SEA DIR/SP/G            HT/PER HT/PER
                          (F)     (DEG/KT/KT) (MB)    (FT/S) (FT/S)
CEDAR KEY                  52     350/  6/ 11 1015.9R
28.5N   84.5W              60 68  320/ 21/ 25 1016.0R   8/ 9   3/ 9
27.3N   84.3W                 72                N/A    10/ 8   2/11
CLEARWATER BEACH           59 63  310/ 22/ 26 1015.0R
MIDDLE TAMPA BAY           60     330/ 20/ 25 1015.2R
VENICE                     62 65  310/ 24/ 27 1014.8R

$$
FLZ066-069-070-075>078-162-262-165-265-270400-
SOUTHWEST FLORIDA AND KEYS

CITY           SKY/WX    TMP DP  RH WIND       PRES   REMARKS
PUNTA GORDA    CLEAR     58  47  66 NW13      29.99R
FT MYERS       MOCLDY    61  48  62 NW10      29.97R
SOUTHWEST INTL CLEAR     60  47  61 NW10      29.97S
NAPLES         PTCLDY    63  49  60 NW13G23   29.98S
MARCO ISLAND   MOCLDY   N/A N/A N/A NW12G23   29.97F
IMMOKALEE      CLEAR     54  54 100 CALM      29.98S
MARATHON       MOCLDY    68  55  63 W10G21    30.00R
KEY WEST NAS   PTCLDY    67  51  56 NW16      30.01S
KEY WEST INTL  MOCLDY    68  53  58 NW18      30.02R

STATION/POSITION SKY/WX   TEMP    WIND        PRES    WAVE   SWELL
                          AIR SEA DIR/SP/G            HT/PER HT/PER
                          (F)     (DEG/KT/KT) (MB)    (FT/S) (FT/S)
VENICE                     62 65  310/ 24/ 27 1014.8R
NAPLES                     64 75  310/ 18/ 23 1015.6R
26.0N   85.6W              65 73  320/ 19/ 25 1017.6R   9/ 9
DRY TORTUGAS               69     320/ 19/ 22 1016.2R
NW FL BAY                  69     310/ 19/ 22 1015.3R
SAND KEY                   69     310/ 21/ 25 1016.3R
SOMBRERO KEY               68     300/ 23/ 24 1016.2R
LONG KEY                   68 68  310/ 20/ 23 1016.4R
MOLASSES REEF              66 74  300/ 14/ 16 1015.4R

$$
FLZ067-068-071>074-168-172>174-270400-
SOUTHEAST FLORIDA

CITY           SKY/WX    TMP DP  RH WIND       PRES   REMARKS
W PALM BEACH   CLEAR     58  50  75 W12       29.93S
FT LAUDER-EXEC CLEAR     59  48  67 W9        29.96S
FT LAUDERDALE  PTCLDY    61  49  64 W9        29.96R
POMPANO BEACH  CLEAR     61  47  59 W10       29.96S
PEMBROKE PINES PTCLDY    61  49  64 W10       29.98R
OPA LOCKA      MOCLDY    62  50  64 W12       29.97S
MIAMI          PTCLDY    63  50  62 W10       29.98R
WEST KENDALL   PTCLDY    57  50  77 NW7       29.99R
HOMESTEAD      MOCLDY    57  50  76 W7        29.98R

STATION/POSITION SKY/WX   TEMP    WIND        PRES    WAVE   SWELL
                          AIR SEA DIR/SP/G            HT/PER HT/PER
                          (F)     (DEG/KT/KT) (MB)    (FT/S) (FT/S)
PORT EVERGLADES            63     280/ 14/ 18 1014.2
VIRGINIA KEY               64 69  290/  7/ 11 1015.3R
LAKE WORTH                 60 73  290/ 11/ 15 1013.7R
SETTLEMENT POINT           66     290/ 26/ 29 1013.3R

$$





U.S. Dept. of Commerce
NOAA National Weather Service
1325 East West Highway
Silver Spring, MD 20910
E-mail: w-nws.webmaster@noaa.gov
Page last modified: May 16, 2007
NATIONAL WEATHER SERVICE: for Safety, for Work, for Fun - FOR LIFE